• In Moldova, Republic
  • List of Countries
  • For 7 days
  • Water Temperature
  • Satellite Maps
  • Weather Map
  • Weather Widgets
  • user-avatar
    Login

    Hourly Weather Lankaran

    Today, 26 June, Monday

    Time Temperature Precipitation Wind Pressure Humidity
    00:00 +14°C° 0 mm 1 mps 635 mmHg 85%
    01:00 +14°C° 0 mm 1 mps 635 mmHg 86%
    02:00 +13°C° 0 mm 2 mps 635 mmHg 88%
    03:00 +14°C° 0 mm 2 mps 635 mmHg 89%
    04:00 +14°C° 0 mm 2 mps 636 mmHg 88%
    05:00 +15°C° 0 mm 2 mps 636 mmHg 86%
    06:00 +16°C° 0 mm 2 mps 637 mmHg 85%
    07:00 +16°C° 0.1 mm 3 mps 637 mmHg 81%
    08:00 +17°C° 0.1 mm 3 mps 637 mmHg 78%
    09:00 +18°C° 0.1 mm 3 mps 638 mmHg 74%
    10:00 +19°C° 0.1 mm 3 mps 638 mmHg 72%
    11:00 +19°C° 0.1 mm 4 mps 637 mmHg 69%
    12:00 +20°C° 0.1 mm 4 mps 637 mmHg 67%
    13:00 +20°C° 0 mm 4 mps 637 mmHg 66%
    14:00 +21°C° 0 mm 4 mps 637 mmHg 64%
    15:00 +21°C° 0 mm 4 mps 637 mmHg 62%
    16:00 +20°C° 0 mm 3 mps 637 mmHg 66%
    17:00 +20°C° 0 mm 3 mps 637 mmHg 71%
    18:00 +19°C° 0 mm 3 mps 637 mmHg 75%
    19:00 +18°C° 0 mm 2 mps 637 mmHg 79%
    20:00 +17°C° 0 mm 2 mps 636 mmHg 84%
    21:00 +16°C° 0 mm 1 mps 636 mmHg 89%
    22:00 +15°C° 0 mm 1 mps 636 mmHg 89%
    23:00 +14°C° 0 mm 1 mps 636 mmHg 89%

    Tomorrow, 27 June, Tuesday

    Time Temperature Precipitation Wind Pressure Humidity
    00:00 +14°C° 0 mm 1 mps 636 mmHg 90%
    01:00 +13°C° 0 mm 1 mps 635 mmHg 90%
    02:00 +13°C° 0 mm 1 mps 635 mmHg 89%
    03:00 +12°C° 0 mm 1 mps 635 mmHg 89%
    04:00 +14°C° 0 mm 1 mps 635 mmHg 84%
    05:00 +15°C° 0 mm 1 mps 636 mmHg 79%
    06:00 +18°C° 0 mm 1 mps 636 mmHg 74%
    07:00 +20°C° 0 mm 1 mps 637 mmHg 67%
    08:00 +21°C° 0 mm 2 mps 637 mmHg 60%
    09:00 +23°C° 0 mm 2 mps 637 mmHg 52%
    10:00 +25°C° 0 mm 3 mps 637 mmHg 50%
    11:00 +26°C° 0 mm 3 mps 637 mmHg 47%
    12:00 +27°C° 0 mm 3 mps 637 mmHg 44%
    13:00 +27°C° 0 mm 3 mps 636 mmHg 45%
    14:00 +27°C° 0 mm 3 mps 636 mmHg 47%
    15:00 +28°C° 0 mm 3 mps 636 mmHg 49%
    16:00 +27°C° 0 mm 3 mps 635 mmHg 55%
    17:00 +25°C° 0 mm 3 mps 635 mmHg 62%
    18:00 +24°C° 0 mm 3 mps 634 mmHg 68%
    19:00 +23°C° 0 mm 2 mps 634 mmHg 75%
    20:00 +20°C° 0 mm 2 mps 634 mmHg 81%
    21:00 +18°C° 0 mm 2 mps 634 mmHg 87%
    22:00 +19°C° 0 mm 1 mps 634 mmHg 87%
    23:00 +18°C° 0 mm 1 mps 633 mmHg 87%

    Day after tomorrow, 28 June, Wednesday

    Time Temperature Precipitation Wind Pressure Humidity
    00:00 +18°C° 0 mm 1 mps 633 mmHg 87%
    01:00 +16°C° 0 mm 1 mps 633 mmHg 87%
    02:00 +16°C° 0 mm 1 mps 633 mmHg 87%
    03:00 +16°C° 0 mm 1 mps 632 mmHg 87%
    04:00 +18°C° 0 mm 1 mps 633 mmHg 84%
    05:00 +20°C° 0 mm 1 mps 633 mmHg 80%
    06:00 +21°C° 0 mm 1 mps 634 mmHg 76%
    07:00 +23°C° 0 mm 1 mps 634 mmHg 68%
    08:00 +25°C° 0 mm 2 mps 635 mmHg 61%
    09:00 +26°C° 0 mm 2 mps 635 mmHg 53%
    10:00 +27°C° 0 mm 2 mps 635 mmHg 51%
    11:00 +28°C° 0 mm 3 mps 635 mmHg 48%
    12:00 +29°C° 0 mm 3 mps 635 mmHg 45%
    13:00 +29°C° 0 mm 3 mps 634 mmHg 46%
    14:00 +29°C° 0 mm 3 mps 634 mmHg 47%
    15:00 +29°C° 0 mm 3 mps 633 mmHg 47%
    16:00 +28°C° 0 mm 3 mps 633 mmHg 52%
    17:00 +27°C° 0 mm 3 mps 632 mmHg 56%
    18:00 +26°C° 0 mm 2 mps 632 mmHg 61%
    19:00 +24°C° 0 mm 2 mps 632 mmHg 67%
    20:00 +22°C° 0 mm 1 mps 632 mmHg 74%
    21:00 +20°C° 0 mm 1 mps 632 mmHg 81%
    22:00 +19°C° 0 mm 1 mps 632 mmHg 81%
    23:00 +19°C° 0 mm 1 mps 632 mmHg 81%

    29 June, Thursday

    Time Temperature Precipitation Wind Pressure Humidity
    00:00 +18°C° 0 mm 1 mps 632 mmHg 81%
    01:00 +18°C° 0 mm 1 mps 632 mmHg 81%
    02:00 +16°C° 0 mm 1 mps 631 mmHg 81%
    03:00 +16°C° 0 mm 1 mps 631 mmHg 82%
    04:00 +18°C° 0 mm 1 mps 632 mmHg 76%
    05:00 +18°C° 0 mm 2 mps 632 mmHg 71%
    06:00 +19°C° 0 mm 2 mps 633 mmHg 66%
    07:00 +21°C° 0 mm 2 mps 633 mmHg 57%
    08:00 +24°C° 0 mm 3 mps 634 mmHg 47%
    09:00 +26°C° 0 mm 3 mps 634 mmHg 37%
    10:00 +27°C° 0 mm 3 mps 634 mmHg 34%
    11:00 +28°C° 0 mm 4 mps 634 mmHg 30%
    12:00 +29°C° 0 mm 4 mps 634 mmHg 26%
    13:00 +29°C° 0 mm 4 mps 634 mmHg 26%
    14:00 +28°C° 0 mm 4 mps 634 mmHg 26%
    15:00 +28°C° 0 mm 4 mps 634 mmHg 26%
    16:00 +27°C° 0 mm 4 mps 633 mmHg 30%
    17:00 +26°C° 0 mm 3 mps 633 mmHg 35%
    18:00 +24°C° 0 mm 2 mps 633 mmHg 39%
    19:00 +21°C° 0 mm 2 mps 632 mmHg 44%
    20:00 +19°C° 0 mm 2 mps 632 mmHg 49%
    21:00 +18°C° 0 mm 1 mps 632 mmHg 53%
    22:00 +16°C° 0 mm 1 mps 632 mmHg 49%
    23:00 +16°C° 0 mm 1 mps 632 mmHg 45%

    30 June, Friday

    Time Temperature Precipitation Wind Pressure Humidity
    00:00 +15°C° 0 mm 1 mps 632 mmHg 41%
    01:00 +15°C° 0 mm 1 mps 631 mmHg 40%
    02:00 +15°C° 0 mm 2 mps 631 mmHg 39%
    03:00 +14°C° 0 mm 2 mps 631 mmHg 38%
    04:00 +16°C° 0 mm 2 mps 632 mmHg 37%
    05:00 +17°C° 0 mm 2 mps 632 mmHg 36%
    06:00 +19°C° 0 mm 2 mps 633 mmHg 35%
    07:00 +20°C° 0 mm 3 mps 633 mmHg 32%
    08:00 +22°C° 0 mm 3 mps 634 mmHg 29%
    09:00 +25°C° 0 mm 4 mps 635 mmHg 26%
    10:00 +26°C° 0 mm 4 mps 634 mmHg 27%
    11:00 +27°C° 0 mm 5 mps 634 mmHg 27%
    12:00 +27°C° 0 mm 6 mps 634 mmHg 28%
    13:00 +27°C° 0 mm 6 mps 634 mmHg 30%
    14:00 +27°C° 0 mm 6 mps 634 mmHg 33%
    15:00 +26°C° 0 mm 6 mps 634 mmHg 35%
    16:00 +25°C° 0 mm 5 mps 634 mmHg 41%
    17:00 +22°C° 0 mm 5 mps 633 mmHg 47%
    18:00 +20°C° 0 mm 4 mps 633 mmHg 52%
    19:00 +19°C° 0 mm 4 mps 633 mmHg 61%
    20:00 +17°C° 0 mm 3 mps 633 mmHg 69%
    21:00 +14°C° 0 mm 3 mps 633 mmHg 78%
    22:00 +13°C° 0 mm 3 mps 633 mmHg 75%
    23:00 +13°C° 0 mm 3 mps 633 mmHg 73%

    1 July, Saturday

    Time Temperature Precipitation Wind Pressure Humidity
    00:00 +13°C° 0 mm 3 mps 633 mmHg 71%
    01:00 +13°C° 0 mm 3 mps 633 mmHg 71%
    02:00 +13°C° 0 mm 3 mps 633 mmHg 72%
    03:00 +13°C° 0 mm 3 mps 633 mmHg 72%
    04:00 +14°C° 0 mm 3 mps 634 mmHg 68%
    05:00 +15°C° 0 mm 4 mps 634 mmHg 65%
    06:00 +17°C° 0 mm 4 mps 635 mmHg 61%
    07:00 +19°C° 0 mm 4 mps 636 mmHg 54%
    08:00 +21°C° 0 mm 4 mps 636 mmHg 47%
    09:00 +23°C° 0 mm 5 mps 637 mmHg 40%
    10:00 +25°C° 0 mm 5 mps 637 mmHg 38%
    11:00 +25°C° 0 mm 5 mps 637 mmHg 36%
    12:00 +26°C° 0 mm 5 mps 637 mmHg 33%
    13:00 +26°C° 0 mm 5 mps 636 mmHg 34%
    14:00 +26°C° 0 mm 5 mps 636 mmHg 34%
    15:00 +26°C° 0 mm 5 mps 636 mmHg 35%
    16:00 +25°C° 0 mm 5 mps 635 mmHg 39%
    17:00 +23°C° 0 mm 5 mps 635 mmHg 43%
    18:00 +21°C° 0 mm 4 mps 635 mmHg 46%
    19:00 +19°C° 0 mm 4 mps 635 mmHg 54%
    20:00 +17°C° 0 mm 3 mps 635 mmHg 62%
    21:00 +15°C° 0 mm 2 mps 635 mmHg 69%
    22:00 +15°C° 0 mm 2 mps 635 mmHg 67%
    23:00 +15°C° 0 mm 2 mps 634 mmHg 64%
    Show more